sat.trackr.live / text

‹ back to catalog

STARLINK-11391 [DTC]

NORAD 62889 · 2025-024L

PAYLOAD ACTIVE UNKNOWN

§ Identity

Operator
Country
US
Launch date
2025-02-04
Launch site
AFETR
Launch vehicle
Mass (kg)
RCS (m²)

Purposes: comms

External: N2YO · Heavens-Above · Gunter

§ Orbital elements

Epoch: 2026-09-21T21:03:44.367840Z

Period
91.67 min
Inclination
42.9986°
Eccentricity
0.0002199
Mean motion
15.70935338 rev/d
Perigee alt
354.7 km
Apogee alt
357.7 km
Semi-major
6,734.4 km
B*
9.5489e-4
RAAN
78.7226°
Arg perigee
263.7928°
Mean anomaly
96.2689°
Rev number
9,432

§ Raw data

STARLINK-11391 [DTC]1 62889U 25024L   26264.87759685  .00124430  00000+0  95489-3 0  99922 62889  42.9986  78.7226 0002199 263.7928  96.2689 15.70935338 94325

JSON: /api/v1/satellites/62889 · /tle

For live sub-satellite position, see the globe view (requires WebGL).

§ Visibility from observer

Set your observer location to see the next 7 days of passes ≥ 10°. The values pass through the URL so the page stays shareable.

No JS? Fill the form by hand. The geolocation button needs JavaScript.